User: anonymous   Login
Location: Gisborne
(38.6530°S, 178.0040°E)
Time: 00:16:23
(UTC+13:00)
Language:

Cosmos 2263 Rocket - Orbit

View from above orbital plane
View from above orbital plane
View from above satellite
View from above satellite

Ground track
Ground track

The orbit data is extracted from the following two-line orbital elements,

1 22803U 93059B   19286.94299256 -.00000148 +00000-0 -49752-4 0  9999
2 22803 070.9892 260.8610 0017090 181.2331 178.8753 14.16816468348246
Epoch (UTC): 13 October 2019 22:37:54
Eccentricity: 0.0017090
inclination: 70.9892°
perigee height: 824 km
apogee height: 848 km
right ascension of ascending node: 260.8610°
argument of perigee: 181.2331°
revolutions per day: 14.16816468
mean anomaly at epoch: 178.8753°
orbit number at epoch: 34824

The dashed part of the orbit path shows where the satellite is in the earth's shadow,  

DLR